ECMWFNIL_925_temp_084.txt.gz
Temp
11 11 11 11 11 11 11 11 10 10 10 10 10 10 10 9 9 9 9 9 9 8 8 8 8 8 8 8 8 9 9 8 8 8 8 8 8 8 8 9 9 9
11 11 10 10 10 10 10 10 10 10 9 9 9 9 9 8 8 8 8 8 8 8 8 8 8 8 8 8 8 9 9 9 9 9 9 9 9 9 9 9 9 9
10 10 10 10 10 9 10 9 9 9 9 9 9 9 8 8 8 8 8 8 8 8 8 8 7 8 8 8 8 9 9 9 9 9 9 9 9 9 9 9 9 9
10 10 10 10 9 9 9 9 9 9 9 9 9 8 8 8 8 8 8 8 8 8 8 8 7 7 8 8 8 8 9 9 9 9 9 9 9 9 9 9 10 10
10 10 9 9 9 9 9 9 9 9 9 8 8 8 8 8 8 8 8 8 8 8 8 8 8 7 7 8 8 8 8 9 8 8 9 9 9 9 9 9 9 9
9 9 9 9 9 9 9 9 8 8 8 8 8 8 8 8 8 8 8 8 8 8 8 8 8 7 7 8 8 8 8 8 8 8 9 9 9 9 9 9 9 9
9 9 9 8 8 8 8 8 8 8 8 8 8 8 8 8 7 8 8 8 8 8 8 8 8 7 7 7 8 8 8 8 8 8 8 9 9 9 9 8 9 9
8 8 8 8 8 8 8 8 8 8 8 8 8 7 8 8 7 7 7 7 7 7 8 8 7 7 7 7 7 8 8 8 8 8 8 8 8 9 8 8 8 8
8 8 8 8 8 8 8 8 8 7 7 8 8 7 7 7 7 7 7 7 7 7 7 7 7 7 7 7 7 7 7 7 7 8 8 8 8 8 8 8 8 8
8 8 8 8 8 7 7 7 7 7 7 7 7 7 7 7 7 7 7 7 7 7 7 7 6 6 6 7 7 7 7 7 7 7 7 8 8 8 8 8 8 8
8 8 8 8 7 7 7 7 7 7 7 7 7 7 7 7 7 7 7 7 7 7 7 6 6 6 6 6 6 6 7 7 7 7 7 7 7 7 7 7 7 7
8 8 8 7 7 7 7 7 7 7 7 7 7 7 7 7 7 7 7 7 7 7 7 6 6 5 5 5 6 6 7 7 7 7 7 7 7 7 7 7 7 7
8 8 7 7 7 7 7 7 7 7 7 7 6 7 7 7 7 7 6 6 6 6 6 6 5 5 4 4 5 6 6 7 7 7 7 7 7 7 7 7 7 7
8 8 7 7 7 7 7 7 7 6 6 6 6 6 6 6 7 6 6 6 6 6 6 5 5 4 4 4 4 5 5 6 7 7 7 7 7 7 7 7 7 6
8 8 7 7 7 7 7 7 7 6 6 6 6 6 6 6 6 6 6 6 6 6 5 5 4 4 3 3 3 4 4 6 7 7 7 7 6 7 7 7 7 6
8 8 8 8 7 7 7 7 7 6 6 6 6 6 6 6 6 6 6 6 6 6 5 5 4 3 3 3 3 3 3 5 6 7 6 7 6 7 7 6 6 5
8 8 8 8 8 8 7 7 7 6 6 6 6 6 6 6 6 6 6 6 6 6 5 5 4 3 3 3 3 4 4 5 6 6 6 7 7 6 6 6 5 4
8 8 8 8 8 8 7 7 7 7 6 6 6 6 6 6 6 6 6 6 6 6 5 5 4 3 3 3 3 4 4 5 6 6 6 7 6 6 6 5 5 4
9 9 8 8 8 8 7 7 7 7 6 6 6 6 6 6 6 6 6 6 6 6 5 4 3 3 3 3 3 4 5 5 6 6 6 6 6 6 5 5 4 4
9 9 8 8 8 8 7 7 7 7 6 6 6 6 6 6 6 5 5 5 6 6 6 4 3 3 3 3 3 4 5 6 6 6 6 6 6 6 5 5 5 4
9 8 8 8 8 7 7 7 7 7 6 6 6 6 6 6 6 6 5 5 5 6 6 5 3 3 3 3 3 4 5 6 6 6 6 6 6 6 6 5 5 4
8 8 8 8 8 7 7 7 7 6 7 7 7 6 6 6 6 6 5 5 5 5 6 5 4 3 3 3 3 4 5 6 6 6 6 7 6 6 6 6 5 4
8 8 8 8 8 7 7 7 7 6 6 7 7 7 6 6 6 6 5 5 5 5 5 5 4 3 3 3 3 4 4 5 6 6 6 7 6 6 6 6 5 4
8 8 8 8 8 7 7 7 7 6 6 7 7 7 7 6 6 6 6 5 5 4 4 5 4 3 3 3 3 3 4 5 6 6 6 6 6 6 6 6 5 5
8 8 8 8 7 7 7 7 7 7 6 7 7 7 7 7 7 6 6 6 5 4 4 4 4 4 3 3 3 3 3 4 5 5 5 6 6 6 6 6 6 5
8 7 7 7 7 7 7 7 7 7 6 7 7 7 7 7 6 6 6 6 5 5 5 4 4 4 3 3 3 3 3 4 5 5 5 5 6 6 6 6 5 5

ECMWFNIL_925_temp_087.txt.gz
Temp
13 12 12 12 12 12 12 12 12 11 11 12 12 12 11 11 11 11 11 11 10 10 10 10 10 10 11 11 11 11 11 11 11 11 11 11 11 11 11 11 11 11
12 12 12 11 11 11 11 11 11 11 11 12 12 11 11 10 10 10 10 11 11 10 10 10 10 10 10 11 11 11 11 11 11 11 11 11 11 11 11 11 11 11
11 11 11 11 11 11 11 11 11 11 11 11 11 11 10 10 10 10 10 10 10 10 10 10 10 10 10 11 11 11 11 11 11 11 11 11 11 11 11 11 11 11
11 11 11 11 11 11 11 11 11 11 11 11 10 10 10 10 10 10 10 10 10 10 10 10 10 10 10 10 11 11 11 11 11 11 11 11 11 11 11 11 11 11
11 11 11 11 12 11 11 11 11 11 10 10 10 10 10 10 10 10 10 10 10 10 10 10 10 10 10 10 10 10 10 10 10 11 11 11 11 11 11 10 10 11
11 11 11 11 12 11 11 11 11 11 10 10 10 10 10 10 10 10 10 10 10 10 10 10 10 10 10 10 10 10 10 10 10 10 11 11 11 11 10 10 10 10
11 11 11 11 11 11 11 10 10 10 10 10 10 10 10 10 10 10 10 10 10 10 10 10 10 9 9 9 10 10 10 10 10 10 10 10 10 10 10 10 10 10
11 10 10 10 10 10 10 10 10 10 10 10 10 10 10 10 10 10 10 10 10 10 9 9 9 9 9 9 9 9 9 9 9 9 10 10 10 10 10 9 9 10
10 10 10 10 10 10 10 10 10 10 10 10 10 10 10 10 10 10 10 10 10 9 9 9 9 9 9 9 9 9 9 9 9 9 9 9 9 9 9 9 9 9
10 10 10 10 10 10 10 10 10 10 10 10 10 10 10 10 10 10 10 10 9 9 9 8 8 8 8 8 8 8 9 9 9 9 9 9 9 9 9 9 9 9
10 10 10 10 10 10 10 10 10 10 10 10 10 10 10 10 9 10 10 9 9 9 8 8 7 7 7 7 7 8 8 9 9 9 9 9 9 9 9 9 9 9
10 10 10 10 10 9 9 10 10 10 10 10 10 10 10 9 9 9 9 9 9 8 8 7 7 6 6 6 6 7 8 9 9 9 9 9 9 9 9 9 8 8
10 10 10 10 10 10 10 9 9 9 10 9 9 9 9 9 9 9 9 8 8 8 7 6 6 5 5 5 5 6 7 8 9 9 9 9 8 9 8 8 8 8
10 10 10 10 10 10 9 9 9 9 9 9 9 9 9 9 9 9 9 8 8 7 7 6 5 5 4 4 4 5 6 8 9 8 9 9 8 8 8 8 8 7
10 10 10 10 10 10 9 9 9 9 9 9 9 9 9 9 9 9 9 8 8 7 6 5 5 4 4 4 4 4 5 7 9 8 8 9 8 8 8 8 7 7
10 10 10 10 10 10 9 9 9 9 9 9 9 9 9 9 9 9 9 8 8 7 6 5 4 3 4 4 5 5 5 6 8 8 8 8 8 8 8 8 7 7
11 11 11 10 10 10 10 9 9 9 9 9 9 9 8 8 8 8 8 8 8 7 6 5 4 3 4 5 5 6 6 6 8 8 8 8 8 8 8 8 7 7
11 11 11 11 10 10 10 10 9 9 9 9 9 8 8 8 8 8 8 8 8 7 6 5 4 3 4 5 5 6 6 7 8 8 8 8 8 8 8 8 7 6
11 11 11 11 10 10 10 10 9 9 9 9 9 8 8 8 8 8 8 8 8 7 6 5 4 4 4 5 5 6 7 7 8 8 8 8 8 8 8 8 7 6
11 11 11 11 10 10 10 10 9 9 9 9 9 8 8 8 8 8 8 8 8 7 6 5 4 4 4 5 5 6 7 7 8 8 8 8 8 8 8 8 7 6
11 11 11 10 10 10 10 9 9 9 9 9 9 9 9 8 8 8 8 8 8 7 7 5 4 4 4 4 5 6 7 7 8 8 8 8 8 8 8 8 7 6
11 11 10 10 10 10 10 9 9 9 9 9 9 9 9 8 8 8 8 7 7 7 7 6 4 4 4 4 5 6 6 7 8 8 8 8 8 8 8 8 7 6
11 11 10 10 10 10 10 9 9 9 9 9 9 9 9 9 8 8 8 7 7 7 7 6 5 4 4 4 5 5 6 7 7 8 8 8 8 8 8 8 7 6
11 11 10 10 10 10 9 9 9 9 9 9 9 9 9 9 9 8 8 7 7 6 6 6 5 5 4 4 4 5 5 6 7 7 7 8 8 8 8 8 7 7
11 10 10 10 10 9 9 9 9 9 9 9 9 9 9 9 9 9 8 8 7 6 6 6 6 5 4 4 4 4 4 5 6 6 6 6 8 8 8 8 8 7
10 10 10 10 9 9 9 9 9 9 9 9 10 10 10 9 9 9 8 8 8 7 6 6 6 5 5 4 4 4 4 4 5 6 5 5 7 8 8 8 8 8

ECMWFNIL_925_temp_093.txt.gz
Temp
13 13 13 13 12 12 12 12 12 12 11 11 11 11 11 11 10 10 10 10 10 10 10 10 10 11 11 11 10 11 11 11 11 11 10 10 10 10 10 10 10 9
13 12 12 12 12 12 12 12 12 11 11 11 11 10 11 10 10 10 10 10 10 10 10 10 10 10 10 10 10 10 10 10 10 10 10 10 10 10 10 10 9 9
12 12 12 12 12 12 12 11 11 11 11 11 11 10 10 10 10 10 10 10 10 10 10 10 10 10 10 10 10 10 10 10 10 10 10 10 9 9 9 9 9 8
12 11 12 12 12 12 11 11 11 11 11 11 11 11 11 10 10 10 10 10 10 10 10 9 9 10 10 10 10 10 10 10 10 10 10 9 9 9 9 9 8 8
11 11 11 12 11 11 11 11 11 11 11 11 11 11 11 10 10 10 10 10 9 9 9 9 9 9 9 9 9 9 9 9 9 9 9 9 9 9 9 8 8 7
11 11 11 11 11 11 11 11 11 11 11 11 11 11 10 10 10 10 9 9 9 9 9 9 9 9 9 9 9 9 9 9 9 9 9 9 9 9 8 8 7 7
11 11 11 11 11 11 11 11 11 11 10 10 10 10 10 10 10 9 9 9 9 8 8 8 8 9 9 9 9 9 9 9 9 9 9 9 9 8 8 7 7 6
11 11 11 11 11 11 11 11 11 11 10 10 10 10 10 10 9 9 9 8 8 8 8 8 8 8 9 9 9 9 9 9 9 9 9 9 8 8 8 7 7 6
11 11 11 11 11 11 11 10 10 10 10 10 10 10 10 9 9 9 8 8 7 7 8 8 7 8 8 8 8 8 9 9 9 9 9 8 8 8 7 7 6 6
11 11 11 11 11 10 10 10 10 10 10 10 10 10 10 9 9 8 8 7 7 7 7 7 7 7 8 8 8 8 8 9 9 8 8 8 8 8 7 7 6 6
11 11 11 11 10 10 10 10 10 10 10 10 10 10 9 9 8 8 8 7 7 6 6 6 6 7 7 8 8 8 8 8 8 8 8 8 8 7 7 7 7 6
11 10 10 10 10 10 10 10 10 10 10 10 10 9 9 8 8 8 7 7 6 6 6 6 6 6 7 7 8 8 8 8 8 8 8 8 8 7 7 7 7 6
10 10 10 10 10 10 10 10 10 10 10 9 9 9 9 8 8 7 7 7 6 5 5 5 6 6 7 7 7 8 8 8 8 8 8 8 8 7 7 7 7 6
10 10 10 10 10 10 10 10 10 10 10 9 9 9 8 8 8 7 7 6 6 5 5 5 6 6 7 7 7 8 8 8 8 8 8 8 8 7 7 7 7 6
10 10 10 10 10 10 10 10 10 10 9 9 9 9 8 8 8 7 6 6 5 5 5 5 6 6 6 7 7 8 8 8 8 8 8 8 8 7 7 7 7 6
10 10 10 10 10 10 9 9 9 9 9 9 9 9 8 8 8 7 6 6 5 5 5 6 6 6 6 7 7 7 8 8 8 8 8 8 8 7 7 7 7 7
10 10 10 10 10 9 9 9 9 9 9 9 9 9 8 8 8 7 6 6 6 6 6 6 6 6 6 7 7 7 8 8 8 8 8 8 8 8 7 7 7 7
10 10 10 9 9 9 9 9 9 9 9 9 9 8 8 8 8 7 7 6 6 6 6 6 6 6 7 7 7 7 8 8 8 8 8 8 8 8 7 7 7 7
10 10 10 9 9 9 9 9 9 9 9 8 8 8 8 8 8 7 7 7 7 6 6 6 6 6 7 7 7 7 7 8 8 7 7 7 8 8 7 7 7 6
10 10 10 9 9 9 9 9 8 8 8 8 8 8 8 8 8 8 7 7 7 7 6 6 6 6 7 7 7 7 7 7 7 7 7 7 7 7 7 7 7 6
10 10 10 10 9 9 9 9 8 8 8 8 8 8 8 8 7 7 7 7 7 7 6 6 6 7 7 7 7 7 7 6 6 6 7 7 7 7 6 7 7 6
10 10 10 10 9 9 9 9 8 8 8 8 8 8 8 8 7 7 7 7 7 7 6 6 6 7 7 7 7 7 6 6 6 6 6 7 7 6 6 6 6 6
10 10 10 9 9 9 9 9 9 9 8 8 8 8 8 7 7 7 7 7 7 7 6 6 6 6 6 7 7 6 6 6 6 6 6 6 6 6 6 6 6 6
10 10 10 9 9 9 9 9 9 9 8 8 8 8 8 8 8 7 7 7 7 7 7 6 6 6 6 6 6 6 5 5 5 5 5 6 6 6 6 6 6 6
10 10 10 9 9 9 9 9 9 9 9 8 8 8 8 8 8 8 7 7 7 7 7 6 6 6 6 6 6 5 5 4 4 4 5 5 5 5 6 6 6 6
10 10 10 9 9 9 9 9 9 9 9 9 9 8 8 8 8 8 8 7 7 7 7 7 7 6 6 6 6 5 5 4 4 4 4 4 5 5 5 5 5 6

ECMWFNIL_925_temp_096.txt.gz
Temp
13 13 13 13 12 12 12 12 12 12 11 11 11 10 10 10 10 10 10 10 10 10 10 10 10 10 10 10 10 10 10 10 9 9 9 9 9 8 8 8 7 7
13 13 13 13 12 12 12 12 12 12 11 11 10 10 10 10 10 10 10 10 10 10 10 10 10 10 10 10 10 10 10 9 9 9 9 9 8 8 8 7 7 7
13 13 13 12 12 12 12 12 12 11 11 10 10 10 10 10 10 10 10 10 10 10 10 10 10 10 10 10 10 9 9 9 9 9 9 8 8 8 7 7 7 6
13 13 12 12 12 12 11 11 11 11 11 10 10 10 10 10 10 10 10 9 9 9 9 9 9 9 9 9 9 9 9 9 9 9 8 8 8 7 7 7 7 6
12 12 12 12 12 11 11 11 11 11 10 10 10 10 10 10 9 9 9 9 9 9 9 9 9 9 9 9 9 9 9 9 9 8 8 8 7 7 7 7 7 6
12 12 12 11 11 11 11 11 11 10 10 10 10 10 10 9 9 9 9 9 9 9 9 9 9 9 9 9 9 9 9 9 8 8 8 7 7 7 7 7 6 6
12 11 11 11 11 11 11 11 10 10 10 10 10 10 9 9 9 9 9 9 9 9 9 9 9 9 9 9 9 9 9 8 8 8 8 7 7 7 6 6 6 5
11 11 11 11 11 11 11 10 10 10 10 10 10 9 9 9 9 9 9 9 9 9 9 9 9 9 9 9 9 8 8 8 8 8 8 7 7 7 6 6 6 5
11 11 11 11 11 11 10 10 10 10 10 10 9 9 9 9 9 9 9 9 9 9 8 9 8 8 8 8 8 8 8 8 8 8 8 7 7 7 6 6 6 6
11 11 11 11 11 10 10 10 10 10 10 9 9 9 9 8 8 9 9 9 9 9 8 8 8 8 8 8 8 8 8 8 8 8 7 7 7 7 6 6 6 6
11 11 11 11 10 10 10 10 10 10 9 9 9 9 8 8 8 8 9 9 9 8 8 8 8 8 8 8 8 8 8 8 8 7 7 7 7 7 7 6 6 6
11 11 11 10 10 10 10 10 10 10 9 9 9 9 8 8 8 8 8 8 8 8 7 7 8 8 8 8 8 8 8 8 8 7 7 7 7 7 7 7 6 6
11 11 10 10 10 10 10 10 10 9 9 9 9 9 8 8 8 8 7 7 7 7 7 7 7 7 8 8 8 8 8 8 8 7 7 7 7 7 7 7 7 6
10 10 10 10 10 10 10 10 9 9 9 8 8 8 8 8 8 7 7 7 6 6 6 7 7 7 7 8 8 8 8 8 8 8 7 7 7 7 7 7 7 6
10 10 10 10 10 10 10 9 9 9 8 8 8 8 8 7 7 7 7 6 6 6 6 7 7 7 7 7 8 8 8 8 8 8 7 7 7 7 7 7 6 6
10 10 10 10 10 10 10 9 9 9 8 8 8 8 8 7 7 6 6 6 6 6 6 7 7 7 7 7 7 8 8 8 8 8 8 7 7 7 7 6 6 6
10 10 10 10 10 10 9 9 9 9 8 8 8 8 8 7 7 6 6 6 6 6 6 6 7 7 7 7 7 8 8 8 8 8 7 7 7 7 7 6 6 6
10 10 10 10 10 9 9 9 9 8 8 8 8 8 7 7 7 6 6 6 6 6 6 6 6 7 7 7 7 7 7 7 7 7 7 7 7 7 7 6 6 6
10 10 10 9 9 9 9 9 9 8 8 8 8 8 7 7 7 6 6 6 7 7 6 6 7 7 7 7 7 7 7 7 7 7 7 7 7 7 7 6 6 6
10 10 9 9 9 9 9 9 9 8 8 8 8 8 7 7 7 7 7 7 7 7 7 7 7 7 7 7 7 7 7 7 7 7 6 7 7 7 6 6 6 6
9 9 9 9 9 9 9 9 8 8 8 8 8 8 7 7 7 7 7 7 7 7 7 7 7 7 7 7 7 6 6 7 6 6 6 6 6 6 6 6 6 6
9 9 9 9 9 9 9 9 8 8 8 8 8 8 8 7 7 7 7 7 7 7 7 7 7 7 7 7 7 6 6 6 6 6 6 6 6 6 6 6 6 5
9 9 9 9 9 9 8 8 8 8 8 8 8 7 7 7 7 7 7 7 7 7 7 7 7 7 7 7 7 6 6 7 6 6 6 6 6 6 6 6 6 5
9 9 9 9 8 8 8 8 8 8 8 8 7 7 7 7 7 7 7 7 7 7 7 7 7 7 7 7 7 7 7 6 6 5 5 5 6 6 6 6 6 6
9 9 9 9 8 8 8 8 8 8 8 8 7 7 7 7 7 7 7 7 7 7 7 7 7 7 6 6 6 6 6 6 5 5 5 5 6 6 6 6 6 6
9 9 9 9 8 8 8 8 8 8 8 8 8 8 7 7 7 8 7 7 7 7 6 6 7 7 6 6 6 6 6 5 5 5 5 5 5 6 6 6 6 7

ECMWFNIL_925_temp_102.txt.gz
Temp
15 15 14 14 13 13 13 13 13 12 12 11 11 11 10 10 10 10 10 10 10 10 10 10 10 10 9 9 9 8 8 8 7 7 7 7 7 6 6 6 6 6
14 14 14 14 13 13 13 12 12 12 11 11 11 10 10 10 10 10 10 10 10 10 10 10 9 9 9 9 8 8 8 7 7 7 7 7 7 6 6 6 6 6
14 14 14 14 13 13 12 12 12 11 11 11 11 10 10 10 10 10 10 10 10 10 9 9 9 9 9 8 8 8 7 7 7 7 7 7 7 6 6 6 6 6
14 14 14 13 13 12 12 12 11 11 11 11 10 10 10 10 10 10 10 10 10 9 9 9 9 9 8 8 8 8 7 7 7 7 7 6 6 6 6 6 6 6
14 13 13 13 13 12 12 11 11 11 11 10 10 10 10 10 10 10 10 9 9 9 9 9 9 8 8 8 8 7 7 7 7 7 7 6 6 6 6 6 6 6
13 13 13 13 12 12 11 11 11 11 11 10 10 10 10 10 10 9 9 9 9 9 9 9 8 8 8 8 8 7 7 7 7 6 6 6 6 6 6 6 6 6
13 13 12 12 12 11 11 11 11 10 10 10 9 9 9 9 9 9 9 9 9 9 9 9 8 8 8 8 7 7 7 7 7 6 6 6 6 6 6 6 6 6
12 12 12 12 11 11 11 11 10 10 10 10 9 9 9 9 9 9 9 9 9 9 8 8 8 8 8 8 7 7 7 7 7 7 6 6 6 6 6 6 6 6
12 12 12 11 11 11 11 10 10 10 10 9 9 9 9 9 9 9 9 9 9 8 8 8 8 8 8 8 7 7 7 7 7 7 7 7 6 6 6 6 6 6
12 11 11 11 11 11 10 10 10 10 9 9 9 9 9 9 9 8 8 8 8 8 8 8 8 8 8 7 7 7 7 7 7 7 7 7 7 6 6 6 6 6
11 11 11 11 11 11 10 10 10 9 9 9 9 9 9 9 8 8 8 8 8 8 8 8 8 8 7 7 7 7 7 7 7 7 7 7 7 6 6 6 6 6
11 11 11 11 11 10 10 10 9 9 9 9 9 9 9 9 8 8 8 8 8 8 8 8 8 8 7 7 7 7 7 7 7 7 7 7 6 6 6 6 6 6
11 11 11 11 10 10 10 9 9 9 9 9 9 9 9 9 8 7 7 8 8 8 8 8 8 8 7 7 7 7 7 7 7 7 7 7 6 6 6 6 6 6
10 10 10 10 10 10 9 9 9 9 9 9 9 9 9 9 8 7 7 7 7 7 7 7 7 7 7 7 7 7 7 7 7 7 7 7 6 6 6 6 6 6
10 10 10 10 10 9 9 9 9 9 9 9 9 9 9 8 8 7 7 7 7 7 7 7 7 7 7 7 7 7 7 7 7 7 7 7 6 6 6 6 6 6
10 10 10 9 9 9 9 9 9 8 8 8 9 8 8 7 7 7 7 7 7 7 7 7 7 7 7 7 7 7 7 7 7 7 7 7 6 6 6 6 6 6
9 9 9 9 9 9 9 9 8 8 8 8 8 8 7 7 6 6 6 6 6 7 7 7 7 7 7 7 7 7 7 7 7 7 7 7 7 7 6 6 6 6
9 9 9 8 8 8 8 8 8 8 8 8 8 7 7 6 6 6 6 6 6 6 7 7 7 7 7 7 7 7 7 7 7 7 7 7 7 7 7 6 6 6
9 9 8 8 8 8 8 8 8 8 8 8 8 7 6 6 6 6 6 6 6 6 7 7 7 7 7 7 7 7 7 7 7 7 7 7 7 7 7 6 6 6
8 8 8 8 8 8 8 8 8 8 8 8 8 7 6 6 6 6 6 6 6 6 6 7 6 6 7 7 7 7 7 7 7 6 6 6 6 6 6 6 6 5
8 8 8 8 8 8 8 8 8 8 8 8 8 7 6 6 6 6 6 6 6 6 6 6 6 6 6 6 7 7 7 7 7 6 6 6 6 6 6 6 6 5
8 8 8 7 7 8 8 8 8 8 8 8 7 7 6 6 6 6 6 6 6 6 6 6 6 6 7 7 7 7 7 7 6 6 6 6 6 6 6 6 6 6
8 8 8 7 7 7 7 8 8 8 8 8 7 7 6 6 6 6 7 7 7 7 7 7 7 7 7 7 7 7 7 6 6 5 5 5 6 6 6 6 6 6
8 8 8 7 7 7 8 8 8 8 8 8 7 7 7 7 7 7 7 7 7 7 7 7 7 7 7 7 7 6 6 6 5 5 5 5 5 6 6 6 6 6
8 8 8 8 8 7 8 8 8 8 8 7 8 7 7 7 7 7 7 7 7 7 7 7 7 7 7 6 6 6 5 5 5 5 5 5 5 5 6 6 6 6
8 8 8 8 8 8 8 8 8 8 8 7 7 7 7 7 7 7 7 7 7 7 7 7 7 7 6 6 6 5 5 4 5 5 5 5 5 6 6 6 6 7

ECMWFNIL_925_temp_105.txt.gz
Temp
15 15 15 15 14 14 14 13 13 13 13 12 12 11 11 10 10 10 10 10 10 10 10 9 9 9 9 9 9 8 8 8 7 7 7 7 7 8 8 8 7 6
15 15 15 14 14 13 13 13 13 13 13 12 12 11 11 10 10 10 10 10 10 10 9 9 9 9 9 8 8 8 7 7 7 7 7 7 7 7 7 7 6 6
15 15 15 14 14 13 13 13 13 13 12 12 11 11 10 10 10 10 10 10 10 9 9 9 9 9 8 8 8 8 7 7 7 7 7 6 6 6 6 6 5 5
15 15 14 14 14 13 13 12 12 12 12 11 11 11 10 10 10 10 10 10 10 9 9 9 9 8 8 8 8 7 7 7 7 6 6 6 6 6 6 5 5 5
15 14 13 13 13 13 13 13 13 12 12 11 11 10 10 10 10 10 10 10 9 9 9 9 8 8 8 8 8 7 7 6 6 6 6 6 6 6 5 5 5 5
14 13 13 13 13 13 13 13 12 12 11 11 11 10 10 10 10 10 10 9 9 9 9 8 8 8 8 8 7 7 6 6 6 6 6 6 6 6 6 6 6 5
13 13 13 13 13 12 13 12 12 11 11 11 10 10 10 10 10 10 10 9 9 9 9 8 8 8 8 8 7 7 6 6 6 6 6 6 6 6 6 6 6 6
13 13 13 13 12 12 12 12 11 11 11 11 10 10 10 10 10 10 9 9 9 9 8 8 8 8 8 8 7 7 6 6 6 6 6 6 6 6 6 6 6 6
13 13 13 12 12 12 12 12 11 11 11 10 10 10 9 9 9 9 9 9 9 9 8 8 8 8 8 8 7 7 6 6 6 6 6 6 6 6 6 6 6 6
13 12 12 12 12 12 12 11 11 11 11 10 10 9 9 9 9 9 9 9 9 9 8 8 8 8 7 7 7 7 7 7 6 6 6 6 6 6 6 6 6 6
12 12 12 12 12 11 11 11 11 11 10 10 10 9 9 9 9 9 9 9 9 9 8 8 8 8 7 7 7 7 7 7 7 7 7 6 6 6 6 6 6 6
12 11 11 11 11 11 11 11 11 10 10 10 9 9 9 9 9 9 9 9 9 8 8 8 8 7 7 7 7 7 7 7 7 7 6 6 6 6 6 6 6 6
11 11 11 11 11 11 11 10 10 10 10 9 9 9 9 9 8 8 8 8 8 8 8 8 8 8 7 7 7 7 7 7 7 6 6 6 6 6 6 6 6 6
11 10 10 11 11 11 10 10 10 10 9 9 9 9 9 8 8 8 8 8 8 8 8 8 8 7 7 7 7 7 7 7 7 7 6 6 6 6 6 6 6 6
10 10 10 10 10 10 10 10 10 9 9 9 9 9 9 8 8 8 8 8 8 8 8 8 8 7 7 7 7 7 7 7 7 7 6 6 6 6 6 6 6 6
10 10 10 10 10 10 10 9 9 9 9 9 9 9 9 8 8 7 8 8 8 8 8 8 8 7 7 7 7 7 7 7 7 7 7 7 6 6 6 6 6 6
10 9 9 10 10 10 9 9 9 9 9 9 9 9 8 8 7 7 7 7 7 7 7 7 7 7 7 7 7 7 7 7 7 7 7 7 7 7 7 6 6 6
9 9 9 9 10 10 9 9 9 9 9 9 8 8 8 8 7 7 7 7 7 7 7 7 7 7 7 7 7 7 7 7 7 7 7 7 7 7 7 7 6 6
9 9 9 9 10 10 9 9 8 8 8 8 8 8 8 8 7 7 7 7 7 7 7 7 7 7 7 7 7 7 7 7 7 7 7 7 7 7 7 6 6 6
9 9 9 9 10 9 9 8 8 8 8 7 8 8 8 7 7 6 6 6 7 7 7 7 7 7 7 7 7 7 7 7 7 7 7 7 6 6 6 6 6 6
9 9 9 9 9 8 8 8 8 8 7 7 8 8 7 7 6 6 6 6 6 7 7 7 7 7 7 7 7 7 7 7 6 6 6 6 6 6 6 6 6 6
8 8 9 9 8 8 8 8 7 7 8 8 8 7 7 6 6 6 6 6 6 6 7 6 6 6 6 6 6 6 7 7 6 6 6 6 6 6 6 6 6 6
8 8 8 8 8 8 7 7 7 7 8 8 8 7 6 6 6 6 6 6 6 6 6 6 6 6 6 6 7 7 7 7 6 6 5 5 6 6 6 6 6 6
9 9 9 8 7 7 7 7 7 8 8 8 8 7 6 6 6 6 6 6 6 6 6 6 6 6 7 7 7 7 7 6 6 5 5 5 5 6 6 6 6 6
8 9 9 8 7 7 7 8 8 8 8 8 8 7 7 6 6 6 6 6 6 6 6 7 7 6 6 6 6 6 6 6 5 5 5 5 5 6 6 6 6 6
8 8 8 7 7 7 7 8 8 8 8 8 8 7 7 6 6 6 6 6 6 6 6 7 7 6 6 6 6 6 6 5 5 5 5 5 6 6 6 6 6 7

ECMWFNIL_925_temp_111.txt.gz
Temp
17 17 17 17 17 17 16 16 16 15 16 16 16 15 15 15 15 14 14 13 13 13 12 12 12 12 12 12 12 12 12 12 11 11 11 11 11 11 11 11 12 12
17 17 17 17 17 17 16 16 16 16 16 16 16 15 15 15 14 14 13 13 13 13 12 12 12 12 12 12 12 12 11 11 11 11 11 11 11 11 11 11 11 11
17 17 17 17 17 17 16 16 16 16 16 16 15 15 15 15 14 13 13 13 13 12 12 12 12 12 12 12 11 11 11 11 11 11 11 11 11 11 11 11 11 11
17 17 17 17 16 17 16 16 15 16 16 15 14 14 15 14 14 13 13 13 12 12 12 12 12 12 12 11 11 11 11 11 11 11 11 11 11 11 11 11 11 11
17 17 17 16 16 16 15 15 14 15 15 14 14 14 14 14 13 13 13 13 12 12 12 12 12 12 11 11 11 11 11 11 11 11 11 11 11 11 10 10 10 11
17 17 17 16 15 15 14 14 14 14 14 14 14 14 14 13 13 13 13 13 12 12 12 12 12 11 11 11 11 11 11 11 11 11 11 11 11 11 11 11 11 11
17 16 16 15 15 15 14 14 14 14 14 14 14 14 13 13 13 13 13 13 13 12 12 12 12 11 11 11 11 11 11 11 11 11 11 11 11 11 11 11 11 11
16 16 15 15 15 14 14 14 14 14 14 14 14 14 14 14 14 13 13 13 13 13 12 12 12 12 11 11 11 11 11 11 11 11 11 11 11 11 11 10 10 11
16 15 15 15 14 14 14 14 14 14 14 14 14 14 14 14 13 13 13 13 13 13 13 12 12 12 11 11 11 11 11 11 11 11 11 11 11 11 11 10 10 10
15 15 14 14 14 14 14 14 14 14 14 14 14 14 14 14 13 13 13 13 13 13 13 12 12 12 11 11 11 11 11 11 11 11 11 11 11 11 11 11 10 10
15 14 14 14 14 14 13 13 14 14 14 14 14 14 14 13 13 13 13 13 13 13 13 12 12 12 12 11 11 11 11 11 11 11 11 11 11 11 11 10 10 10
15 14 14 14 13 13 13 13 14 14 14 14 14 14 14 13 13 13 13 13 13 13 13 13 12 12 12 12 11 11 11 11 11 11 11 11 11 11 10 10 10 10
15 14 14 13 13 13 13 13 14 14 14 14 14 14 13 13 13 13 13 13 13 13 13 13 12 12 12 12 11 11 11 11 11 11 11 11 11 11 10 10 10 10
14 13 13 13 13 13 13 13 14 14 14 14 14 13 13 13 13 13 13 13 13 13 13 13 12 12 12 12 11 11 11 11 11 11 11 10 10 10 10 10 10 10
14 13 13 13 13 13 13 13 14 14 14 14 13 13 13 13 13 12 12 13 13 13 13 12 12 12 12 11 11 11 11 11 11 11 11 10 10 10 10 10 10 10
13 13 13 13 13 13 13 14 14 14 13 13 13 12 11 11 12 11 12 12 12 12 12 11 11 11 11 11 11 11 11 11 11 11 11 11 11 10 10 10 10 10
13 13 13 13 13 13 13 14 14 14 13 12 12 11 10 10 10 10 11 10 10 11 10 10 10 11 11 11 11 11 11 11 11 11 11 11 11 11 10 10 10 10
13 13 13 13 13 13 12 12 13 12 12 11 11 10 10 10 10 9 9 9 10 10 10 10 10 10 10 10 10 10 10 11 11 11 11 11 11 11 11 11 10 10
14 14 14 13 13 12 12 12 11 11 11 10 10 10 9 9 9 9 9 9 9 9 10 10 10 10 10 10 10 10 10 10 11 11 11 11 11 11 11 11 10 10
14 14 14 13 13 12 11 11 11 11 10 10 9 9 9 9 9 9 9 9 9 10 10 11 10 9 9 9 9 9 9 10 10 11 11 11 11 11 10 10 10 10
14 14 13 13 12 11 11 11 11 11 10 9 9 9 8 8 8 9 9 9 9 10 11 11 10 9 9 9 9 9 9 9 9 10 11 11 10 10 10 10 10 10
14 14 13 12 11 11 11 11 11 10 10 9 9 9 9 9 9 9 9 9 10 11 11 11 10 9 9 9 8 8 9 9 9 10 10 10 10 10 10 10 10 9
14 13 12 12 11 11 11 11 10 10 9 9 10 10 9 9 9 9 10 10 10 11 11 11 9 9 9 8 8 8 8 8 9 9 10 10 10 10 10 10 10 9
13 13 12 12 11 12 12 11 10 10 10 10 10 10 10 10 10 10 10 10 10 11 11 10 9 8 8 8 8 7 7 8 9 10 10 10 10 10 10 10 9 9
13 13 12 12 12 12 11 11 10 10 10 10 11 11 11 11 11 11 11 10 10 10 10 9 8 8 8 8 7 7 7 8 9 10 11 11 10 10 10 10 9 8
13 13 12 12 12 11 11 11 11 10 10 11 11 11 11 10 10 10 10 10 10 10 9 9 8 8 8 8 7 7 7 8 9 10 11 11 11 10 11 10 10 9

ECMWFNIL_925_temp_114.txt.gz
Temp
18 18 18 17 17 17 16 16 16 16 16 16 16 16 15 15 15 15 15 14 13 13 13 13 13 13 13 13 13 12 12 12 12 12 12 12 12 12 12 12 12 12
18 18 17 17 17 16 16 16 16 16 16 16 16 16 16 15 15 15 15 14 13 13 13 13 13 13 13 12 12 12 12 12 12 12 12 12 11 11 11 12 12 12
18 18 17 17 17 17 16 16 16 16 16 16 16 16 16 15 15 14 14 13 13 13 13 13 13 12 12 12 12 12 12 12 12 12 12 11 11 11 11 11 11 11
17 17 17 17 17 17 16 16 16 16 16 16 16 16 16 15 15 14 14 13 13 13 12 12 12 12 12 12 12 12 12 11 11 11 11 11 11 11 11 11 11 11
17 17 17 17 17 17 16 16 16 16 16 16 16 16 15 15 14 14 13 13 13 12 12 12 12 12 12 12 12 12 11 11 11 11 11 11 11 11 11 11 11 11
17 17 17 17 17 16 16 16 16 16 16 16 15 15 15 15 14 14 13 13 13 12 12 12 12 12 12 12 11 12 11 11 11 11 11 11 11 11 11 11 11 11
17 17 17 17 17 16 16 16 16 16 15 15 15 15 15 14 14 14 13 13 13 12 12 12 12 12 12 12 12 12 12 12 12 12 11 11 11 11 11 11 11 11
17 17 17 17 17 16 16 16 15 15 15 14 15 15 15 14 14 14 13 13 13 13 12 12 12 12 12 12 12 12 12 12 12 12 11 11 11 11 11 11 11 11
17 17 16 16 16 16 16 15 15 15 15 14 14 15 15 14 14 13 13 13 13 13 12 12 12 12 12 12 12 11 12 12 12 12 11 11 11 11 11 11 11 10
17 16 16 16 15 15 15 15 15 15 15 14 14 14 14 14 14 14 13 13 13 13 13 12 12 12 12 12 12 11 12 12 12 11 11 11 11 11 11 11 11 10
17 16 16 15 15 15 15 15 15 15 14 14 14 14 14 14 14 14 14 13 13 13 13 12 12 12 12 12 12 12 12 12 11 11 11 11 11 11 11 11 11 11
16 16 15 15 15 15 15 15 15 14 14 14 14 14 14 14 14 14 14 13 13 13 13 13 12 12 12 12 12 12 12 11 11 11 11 11 11 11 11 11 11 10
16 15 15 14 14 15 14 14 14 14 14 14 14 14 14 14 14 14 14 14 14 13 13 13 12 12 12 12 12 12 12 11 11 11 11 11 11 11 11 10 10 10
15 15 14 14 14 14 14 14 14 14 14 14 14 14 14 14 14 14 14 14 14 13 13 13 12 12 12 12 12 11 11 11 11 11 11 11 11 11 10 10 10 10
15 14 14 14 14 14 14 14 14 14 14 14 14 14 14 14 14 14 14 14 14 13 13 12 12 11 11 11 11 11 11 11 11 11 11 11 11 11 10 10 10 10
14 14 14 14 14 14 14 14 14 14 14 14 14 14 14 14 14 14 14 14 13 13 12 12 11 11 11 11 11 11 11 11 11 11 11 11 11 11 10 10 10 10
14 14 14 14 14 14 14 14 14 14 14 14 14 14 14 14 13 13 13 13 13 12 11 11 11 11 11 11 11 11 11 11 11 11 11 11 11 11 10 10 10 10
14 14 14 14 14 14 14 14 14 14 14 14 13 13 13 13 13 12 13 13 12 11 11 10 10 11 11 11 11 11 11 11 11 11 11 11 11 11 11 11 10 10
14 14 14 14 14 14 14 14 14 14 14 13 13 12 12 12 12 11 11 11 11 10 10 10 10 10 10 11 11 11 11 11 11 11 11 11 11 11 11 11 11 10
14 14 14 13 13 13 14 14 14 14 13 12 12 11 11 11 11 10 10 10 11 10 10 10 10 10 10 11 11 11 11 11 11 11 11 11 11 11 11 11 11 10
14 14 13 13 13 13 14 14 14 13 12 12 11 11 11 11 10 10 10 10 11 10 10 10 10 10 10 10 11 11 11 11 11 11 11 11 11 11 11 11 10 10
14 14 13 13 13 13 13 13 13 12 11 11 10 10 10 10 10 10 10 10 10 10 10 11 11 10 10 10 10 10 10 10 10 10 11 11 11 11 10 10 10 10
14 13 13 13 13 13 13 13 12 12 11 10 10 10 10 10 10 10 10 10 10 10 11 11 11 10 10 10 10 10 10 10 10 10 11 11 10 10 10 10 10 10
15 14 14 14 13 12 12 12 12 11 11 10 10 10 10 9 10 10 10 10 10 10 11 11 10 10 10 10 10 10 10 9 9 10 10 10 10 10 10 10 10 10
16 15 15 14 13 12 12 12 11 11 10 10 10 10 10 10 10 10 10 10 10 11 11 11 10 10 9 9 9 9 9 9 9 10 10 10 10 10 10 10 10 10
15 14 14 13 12 12 12 12 11 10 10 10 10 10 10 10 10 10 10 11 11 11 11 10 10 9 9 9 9 9 9 9 9 10 11 11 11 11 10 10 10 10

ECMWFNIL_925_temp_117.txt.gz
Temp
19 18 18 18 17 17 17 16 16 16 16 16 16 16 16 15 15 15 14 14 14 14 14 14 13 13 13 13 13 13 13 13 13 13 13 13 13 13 12 12 12 12
18 18 18 17 17 17 16 16 16 16 16 16 16 15 15 15 15 14 14 14 13 13 13 13 13 13 13 13 13 13 13 12 12 12 13 12 12 12 12 12 12 12
18 18 18 17 17 16 16 16 16 16 16 16 16 16 15 15 15 14 14 14 13 13 13 13 13 13 12 12 12 12 12 12 12 12 12 12 12 12 12 12 12 12
18 18 17 17 17 16 16 16 16 16 16 16 16 16 15 15 14 14 14 13 13 13 13 12 12 12 12 12 12 12 12 12 12 12 12 12 12 12 11 11 12 12
18 17 17 17 17 16 16 16 16 16 16 16 16 15 15 15 14 14 13 13 13 12 12 12 12 12 12 12 12 12 12 12 11 12 12 12 11 11 11 12 11 11
18 17 17 17 16 16 16 16 16 16 16 16 16 15 15 15 14 14 13 13 13 12 12 12 12 12 12 12 12 12 12 12 11 12 12 11 11 11 11 11 11 11
17 17 17 17 16 16 16 16 16 16 16 16 16 15 15 15 14 14 13 13 12 12 12 12 12 12 12 12 12 12 11 12 12 12 12 11 11 11 11 11 11 11
17 17 17 16 16 16 16 16 16 16 16 16 15 15 15 15 14 13 13 13 12 12 12 12 12 12 12 12 12 11 11 11 11 11 11 11 11 11 11 11 11 11
17 17 17 16 16 16 16 16 16 16 16 16 15 15 15 14 14 13 13 13 12 12 12 12 12 12 12 12 12 12 11 11 11 11 11 11 11 11 11 11 11 11
17 17 16 16 16 16 16 16 16 16 16 15 15 15 15 14 14 13 13 13 12 12 12 12 12 12 12 12 12 12 12 11 11 11 11 11 11 11 11 10 10 10
17 16 16 16 16 16 16 16 16 16 16 15 15 15 14 14 14 13 13 13 12 12 12 12 12 12 11 12 12 12 12 11 11 11 11 11 11 11 10 10 10 10
16 16 16 16 16 16 15 15 15 15 15 15 15 15 14 14 13 13 13 13 12 12 12 12 12 12 11 11 11 11 11 11 11 11 11 11 11 11 10 10 10 10
16 16 16 16 16 16 15 15 15 15 15 15 15 14 14 14 13 13 13 13 13 12 12 12 12 12 11 11 11 11 11 11 11 11 11 11 11 11 10 10 10 10
16 16 16 16 15 15 15 15 15 14 15 15 15 14 14 14 13 13 13 13 13 12 12 12 12 12 12 11 11 11 11 11 11 11 11 11 11 11 10 10 10 10
16 16 15 15 15 15 15 15 14 14 14 14 14 14 14 14 14 13 13 13 13 13 12 12 12 12 12 12 11 11 11 11 11 11 11 11 11 10 10 10 10 10
15 15 15 15 15 15 14 14 14 14 14 14 14 14 14 14 14 13 13 13 13 13 12 12 12 12 12 11 11 11 11 11 11 11 11 11 10 10 10 10 10 10
15 15 15 15 14 14 14 14 14 14 14 14 14 14 14 14 14 13 13 13 13 13 12 12 12 12 11 11 11 11 11 11 11 11 11 11 10 10 10 10 10 10
15 15 15 14 14 14 14 14 14 14 14 14 14 14 14 14 14 14 13 13 13 13 12 12 12 12 11 11 11 11 11 11 11 11 11 10 10 10 10 10 10 10
15 14 14 14 14 14 14 14 14 14 14 14 14 14 14 14 14 14 13 13 13 13 12 12 12 11 11 11 11 11 11 11 11 11 11 10 10 10 10 10 10 10
14 14 14 14 14 14 14 14 14 14 14 14 14 14 14 14 13 13 13 13 13 12 12 11 11 11 11 11 11 11 11 11 11 11 11 11 10 10 10 10 10 10
14 14 14 14 14 14 14 14 14 14 14 14 14 14 13 13 13 13 13 12 12 12 11 11 11 10 10 11 11 11 11 11 11 11 11 11 11 11 11 11 10 10
14 14 14 14 14 14 14 14 14 14 14 14 14 13 13 13 13 13 12 12 11 11 11 11 10 10 10 10 10 11 11 11 11 11 11 11 11 11 11 11 10 10
14 14 14 13 13 13 13 13 13 13 13 13 13 12 12 12 12 12 12 11 11 11 11 10 10 10 10 10 10 10 11 11 10 10 11 11 11 11 11 11 10 10
14 14 14 13 13 13 13 13 13 13 13 13 13 12 12 11 12 12 11 11 11 11 10 10 10 10 10 10 10 10 11 11 10 10 10 10 10 10 10 10 10 10
14 14 14 13 13 13 13 13 13 13 13 13 12 12 11 11 11 11 11 11 10 10 10 10 10 10 10 10 10 10 10 11 10 10 10 10 10 10 10 10 10 10
14 14 14 13 13 13 13 13 12 12 12 11 11 11 11 11 11 10 10 10 10 10 10 10 10 10 10 10 10 10 10 10 10 10 10 10 10 10 10 10 10 10

ECMWFNIL_925_temp_123.txt.gz
Temp
18 18 18 17 18 18 18 18 17 17 17 17 17 17 17 16 16 16 16 16 16 16 16 16 15 15 15 15 15 15 15 14 15 15 15 15 15 15 15 15 15 15
18 18 17 17 17 18 18 18 18 18 17 17 17 17 17 16 16 16 16 16 16 16 16 15 15 15 15 15 15 14 14 14 14 14 15 15 15 15 15 15 15 14
18 17 17 17 17 17 17 17 17 17 17 17 17 17 17 16 16 16 16 16 16 16 15 15 15 15 15 15 15 14 14 14 14 14 14 14 14 14 14 14 14 14
18 17 17 17 17 17 17 17 16 17 17 17 17 17 16 16 16 16 16 16 16 15 15 15 15 14 14 14 14 14 13 13 14 14 14 14 14 14 14 13 13 13
17 17 17 18 17 17 17 16 16 16 17 17 17 16 16 16 16 16 16 15 15 15 15 15 14 14 14 14 14 13 13 13 13 13 13 13 13 13 13 13 13 12
17 17 17 18 17 17 17 17 17 17 16 16 16 16 16 16 16 16 16 15 15 15 14 14 14 14 13 13 13 13 13 13 13 13 13 13 13 13 13 12 12 12
17 17 17 17 17 17 17 17 17 16 16 16 16 16 16 16 16 16 15 15 15 15 14 14 14 13 13 13 13 13 12 12 12 12 12 13 12 12 12 12 12 11
17 17 17 17 17 17 17 17 16 16 16 16 16 16 16 16 15 15 15 15 15 14 14 14 13 13 13 13 13 12 12 12 12 12 12 12 12 12 11 11 11 11
17 17 17 17 17 17 17 16 16 16 16 16 16 16 16 16 15 15 15 15 14 14 14 13 13 13 13 12 12 12 12 12 12 12 12 12 12 12 11 11 11 11
17 17 17 17 17 17 16 16 16 16 16 16 16 16 16 15 15 15 15 15 14 14 13 13 13 13 12 12 12 12 12 12 11 11 12 12 12 11 11 11 11 11
17 17 17 17 17 16 16 16 16 16 16 16 16 16 16 15 15 15 15 14 14 14 13 13 13 12 12 12 12 12 12 12 11 11 11 12 11 11 11 11 11 11
16 16 16 17 17 16 16 16 16 16 15 16 16 16 15 15 15 15 15 14 14 14 13 13 13 12 12 12 12 11 12 11 11 11 11 11 11 11 11 11 11 11
16 16 16 16 16 16 16 16 15 15 15 15 16 16 15 15 15 15 14 14 14 13 13 13 12 12 12 12 11 11 11 11 11 11 11 11 11 11 10 10 10 10
17 16 16 16 16 16 16 16 15 15 15 16 16 15 15 15 15 15 14 14 14 13 13 13 12 12 12 12 11 11 11 11 11 11 11 10 10 10 10 10 10 10
17 16 16 16 16 16 16 15 15 15 15 15 15 15 15 15 15 15 14 14 13 13 13 12 12 12 12 11 11 11 11 11 11 11 11 10 10 10 10 10 10 10
16 16 16 16 15 15 15 15 15 15 15 15 15 15 15 15 15 14 14 14 13 13 12 12 12 12 12 12 11 11 11 11 11 11 10 10 10 10 10 10 10 10
16 16 16 16 15 15 15 15 15 14 14 14 15 14 15 15 14 14 14 14 13 13 12 12 12 12 12 12 11 11 11 11 11 11 10 10 10 10 10 10 9 9
16 16 15 15 15 15 15 15 14 14 14 14 14 14 14 14 14 14 14 13 13 13 12 12 12 12 12 12 11 11 11 11 11 11 11 10 10 10 10 10 9 9
16 16 15 15 15 15 15 15 14 14 14 14 14 14 14 13 13 13 13 13 13 13 12 12 12 12 12 11 11 11 11 11 11 11 11 10 9 9 10 10 9 9
16 15 15 15 15 15 15 14 14 14 14 14 14 14 13 12 13 13 13 13 13 13 13 12 12 12 12 11 11 11 11 11 11 11 11 10 10 10 10 10 9 9
16 15 15 15 15 15 14 14 14 14 14 14 14 14 13 13 13 13 13 13 13 13 13 12 12 12 12 11 11 11 11 11 11 11 10 10 10 10 10 10 10 10
16 15 15 15 14 14 14 14 14 14 13 14 14 13 13 13 13 13 13 13 13 13 12 12 12 12 12 11 11 11 11 11 11 11 10 10 10 10 10 10 10 10
16 15 15 14 14 14 14 14 14 13 13 13 13 12 12 12 13 13 13 13 13 12 12 12 12 12 12 12 11 11 11 11 11 10 10 10 10 10 10 10 10 10
16 15 15 14 14 14 14 14 14 14 14 13 13 12 12 12 12 13 13 13 13 12 12 12 12 12 12 11 11 11 11 11 11 10 10 10 10 10 10 10 10 10
15 15 14 14 14 15 15 14 14 14 13 13 12 13 12 12 12 12 12 12 12 12 12 12 13 12 12 11 11 11 11 11 11 10 10 10 10 10 10 9 9 10
15 15 14 14 15 15 15 14 13 13 12 12 12 12 12 12 12 12 11 11 11 11 12 12 12 12 11 11 11 11 11 11 10 10 10 10 10 10 10 9 9 9